Location: Ellingshausen
(50.5460°N, 10.4723°E)
Time: 22:43:26
(UTC+00:00)

YAOGAN 1 - Visible Passes

Search period start: 18 April 2026 00:00
Search period end: 28 April 2026 00:00
Orbit: 604 x 606 km, 97.8° (Epoch: 18 April)

Date Brightness Start Highest point End Pass type
(mag) Time Alt. Az. Time Alt. Az. Time Alt. Az.
18 Apr 5.4 18:46:50 10° SW 18:49:51 19° W 18:52:53 10° NW visible
19 Apr 5.6 19:00:23 10° WSW 19:02:42 14° W 19:05:02 10° NW visible
20 Apr 5.9 19:14:34 10° W 19:15:34 11° W 19:16:34 10° WNW visible
27 Apr 5.7 19:06:40 10° WSW 19:08:30 12° W 19:10:22 10° WNW visible
